EW7554 Weather Reports


time (UTC)temp
C
wind
direction
speed
KPH
gust
KPH
rain 1hr
cm
rain 24hr
cm
rain mn
cm
humidity
%
barometer
mb
20260507060038 4 294 0.0 3.2 0.00 0.00 0.00 60 1016.0
20260507054533 4 294 0.0 3.2 0.00 0.00 0.00 61 1016.1
20260507053024 4 294 1.6 3.2 0.00 0.00 0.00 60 1016.2
20260507051521 5 295 1.6 4.8 0.00 0.00 0.00 60 1016.2
20260507050019 5 298 0.0 4.8 0.00 0.00 0.00 59 1016.2
20260507044540 5 299 0.0 3.2 0.00 0.00 0.00 58 1016.4
20260507043018 5 299 0.0 1.6 0.00 0.00 0.00 60 1016.4
20260507041517 5 299 0.0 1.6 0.00 0.00 0.00 56 1016.5
20260507040016 5 299 0.0 1.6 0.00 0.00 0.00 55 1016.6
20260507034516 5 299 0.0 1.6 0.00 0.00 0.00 54 1016.6
20260507033016 5 299 0.0 1.6 0.00 0.00 0.00 54 1016.7
20260507031516 5 299 0.0 1.6 0.00 0.00 0.00 54 1016.8
20260507030017 5 299 0.0 1.6 0.00 0.00 0.00 53 1016.8
20260507024514 5 299 0.0 1.6 0.00 0.00 0.00 53 1016.9
20260507023013 5 299 0.0 3.2 0.00 0.00 0.00 52 1016.9
20260507021519 5 299 3.2 6.4 0.00 0.00 0.00 51 1016.9
20260507020013 5 290 1.6 6.4 0.00 0.00 0.00 51 1016.9
20260507014513 6 288 3.2 8.0 0.00 0.00 0.00 50 1016.8
20260507013012 6 270 1.6 11.3 0.00 0.00 0.00 49 1016.8
20260507011511 6 288 3.2 12.9 0.00 0.00 0.00 47 1016.9
20260507010011 7 302 6.4 17.7 0.00 0.00 0.00 46 1016.9
20260507004511 7 269 6.4 19.3 0.00 0.00 0.00 45 1017.0
20260507003017 7 240 4.8 24.1 0.00 0.00 0.00 44 1016.9
20260507001520 7 279 9.7 22.5 0.00 0.00 0.00 45 1017.1
20260507000012 7 254 6.4 19.3 0.00 0.00 0.00 46 1017.1
20260506234509 7 340 9.7 22.5 0.00 0.00 0.00 45 1017.1
20260506233007 7 288 11.3 19.3 0.00 0.00 0.00 45 1017.2
20260506231512 7 298 6.4 19.3 0.00 0.00 0.00 45 1017.2
20260506230006 7 312 6.4 24.1 0.00 0.00 0.00 46 1017.2
20260506224506 7 288 11.3 27.4 0.00 0.00 0.00 45 1017.2
20260506223005 7 307 11.3 25.7 0.00 0.00 0.00 46 1017.2
20260506221604 7 309 6.4 22.5 0.00 0.00 0.00 46 1017.3
20260506220003 7 315 9.7 20.9 0.00 0.00 0.00 47 1017.3
20260506214504 7 244 6.4 22.5 0.00 0.00 0.00 47 1017.5
20260506213004 6 279 14.5 29.0 0.00 0.00 0.00 47 1017.6
20260506211500 7 277 11.3 24.1 0.00 0.00 0.00 47 1017.6
20260506204628 7 238 4.8 16.1 0.00 0.00 0.00 50 1018.0
20260506203057 6 317 11.3 20.9 0.00 0.00 0.00 50 1018.0
20260506201557 6 331 6.4 20.9 0.00 0.00 0.00 52 1018.1
20260506200056 6 273 6.4 24.1 0.00 0.00 0.00 50 1018.1
20260506194604 6 306 9.7 16.1 0.00 0.00 0.00 51 1018.2
20260506193058 5 290 9.7 20.9 0.00 0.00 0.00 51 1018.2
20260506191554 5 276 11.3 22.5 0.00 0.00 0.00 51 1018.2
20260506190053 5 300 16.1 25.7 0.00 0.00 0.00 51 1018.3
20260506184553 6 283 8.0 20.9 0.00 0.00 0.00 51 1018.2
20260506183059 5 321 9.7 24.1 0.00 0.00 0.00 50 1018.2
20260506181551 5 250 11.3 20.9 0.00 0.00 0.00 50 1018.4
20260506180052 5 298 12.9 22.5 0.00 0.00 0.00 49 1018.2
20260506174549 5 277 9.7 25.7 0.00 0.00 0.00 51 1018.3
20260506173050 5 323 11.3 22.5 0.00 0.00 0.00 50 1018.4
20260506171554 5 309 9.7 22.5 0.00 0.00 0.00 51 1018.4
20260506170047 5 312 11.3 38.6 0.00 0.00 0.00 51 1018.7
20260506164544 5 317 14.5 30.6 0.00 0.00 0.00 51 1018.7
20260506163043 4 288 11.3 22.5 0.00 0.00 0.00 52 1018.7
20260506161539 4 292 11.3 24.1 0.00 0.00 0.00 52 1018.8
20260506160037 4 304 12.9 24.1 0.00 0.00 0.00 52 1018.6
20260506154537 4 288 11.3 25.7 0.00 0.00 0.00 52 1018.5
20260506153035 4 325 6.4 29.0 0.00 0.00 0.00 53 1018.5
20260506151537 4 293 8.0 20.9 0.00 0.00 0.00 53 1018.4
20260506150033 4 317 6.4 20.9 0.00 0.00 0.00 55 1018.5
20260506144530 3 289 9.7 17.7 0.00 0.00 0.00 55 1018.6
20260506143028 3 243 9.7 19.3 0.00 0.00 0.00 55 1018.5
20260506141528 3 293 6.4 20.9 0.00 0.00 0.00 55 1018.5
20260506140029 3 311 9.7 17.7 0.00 0.00 0.00 55 1018.4
20260506134525 3 268 11.3 20.9 0.00 0.00 0.00 56 1018.3
20260506133040 3 330 8.0 20.9 0.00 0.00 0.00 58 1018.3
20260506131529 3 283 6.4 20.9 0.00 0.00 0.00 59 1018.1
20260506130024 3 306 11.3 20.9 0.00 0.00 0.00 58 1017.9
20260506124520 3 298 12.9 20.9 0.00 0.00 0.00 58 1017.7
20260506123018 3 290 4.8 16.1 0.00 0.00 0.00 61 1017.6
20260506121514 2 315 4.8 9.7 0.00 0.00 0.00 62 1017.3
20260506120018 2 288 6.4 14.5 0.00 0.00 0.00 64 1017.2
20260506114506 1 306 4.8 9.7 0.00 0.00 0.00 67 1016.8
20260506113001 1 293 1.6 6.4 0.00 0.00 0.00 71 1016.6
20260506111607 0 293 1.6 4.8 0.00 0.00 0.00 72 1016.5
20260506110058 0 285 3.2 6.4 0.00 0.00 0.00 73 1016.7
20260506104559 0 277 0.0 4.8 0.00 0.00 0.00 72 1016.8
20260506103100 0 294 0.0 3.2 0.00 0.00 0.00 70 1016.8
20260506101552 0 295 0.0 3.2 0.00 0.00 0.00 69 1016.4
20260506100053 1 295 0.0 4.8 0.00 0.00 0.00 67 1016.3
20260506094548 1 296 1.6 6.4 0.00 0.00 0.00 67 1016.3
20260506093046 1 296 1.6 4.8 0.00 0.00 0.00 66 1016.2
20260506091545 1 295 1.6 3.2 0.00 0.00 0.00 65 1016.3
20260506090043 1 295 3.2 6.4 0.00 0.00 0.00 65 1016.4
20260506084543 1 298 3.2 4.8 0.00 0.00 0.00 65 1016.1
20260506083039 1 300 1.6 4.8 0.00 0.00 0.00 64 1015.8
20260506081537 1 300 1.6 6.4 0.00 0.00 0.00 62 1015.9
20260506073033 2 340 3.2 12.9 0.00 0.00 0.00 59 1015.5
20260506071527 2 326 4.8 9.7 0.00 0.00 0.00 59 1015.5
20260506061519 3 327 6.4 14.5 0.00 0.00 0.00 55 1015.5